www.pogodaiklimat.ru

АРХИВ ПОГОДЫ в Сиэтле

Время (UTC), дата Ветер
(напр.,м/с)
 
Видим.   Явления Облачность Т
(С)
Тd
(С)
f
(%)
Тe
(С)
Тes
(С)
Комфортность

P
(гПа)

Po
(гПа)
Тmin
(С)
Tmax
(С)
R
(мм)
SD
(см)
19:53 16.08 З  11 км    8/8 420 м  +18.9  +12.8  68  +20  +22    1019.7  1003.6         
20:11 16.08 З  13 км    8/8 450 м  +19.4  +13.3  68  +21  +23  комфорт    1003.6         
20:24 16.08 ЮЗ  13 км    5/5 450 м  +19.4  +12.8  66  +21  +27  комфорт    1003.6         
20:53 16.08 нст  16 км    2/2 450 м  +20.6  +13.3  63  +23  +33  комфорт  1019.4  1003.2         
21:53 16.08 ЮЗ  16 км    ясно  +22.2  +13.3  57  +25  +32  комфорт  1019.0  1002.9         
22:53 16.08 нст  16 км    ясно  +22.2  +13.3  57  +25  +32  комфорт  1018.8  1002.6    +22.8     
23:53 16.08 штиль  14 км    ясно  +21.7  +13.3  59  +24  +33  комфорт  1018.8  1002.6         
00:53 17.08 З  16 км    ясно  +21.7  +13.3  59  +24  +27  комфорт  1018.8  1002.6         
01:53 17.08 штиль  13 км    ясно  +21.1  +13.3  61  +23  +25  комфорт  1018.8  1002.6         
02:53 17.08 З  16 км    ясно  +20.0  +13.3  65  +23  +23  комфорт  1019.5  1003.2         
03:53 17.08 З  16 км    ясно  +18.3  +13.3  73  +19  +19    1020.2  1003.9         
04:53 17.08 Ю  16 км    ясно  +16.7  +12.2  75  +16  +16    1020.7  1004.6    +22.2     
05:53 17.08 Ю  16 км    ясно  +16.1  +11.7  75  +15  +15    1021.3  1004.9         
06:53 17.08 Ю  16 км    ясно  +15.0  +11.1  77  +14  +14    1021.6  1005.2         
07:53 17.08 Ю  16 км    ясно  +14.4  +10.6  78  +13  +13    1022.1  1005.9         
08:53 17.08 ЮЗ  16 км    ясно  +13.3  +10.6  84  +12  +12    1022.4  1006.2         
09:53 17.08 Ю  16 км    ясно  +12.8  +10.0  83  +11  +11    1022.6  1006.6         
10:17 17.08 ЮЗ  16 км    5/5 270 м  +12.8  +10.6  86  +11  +11      1006.6         
10:53 17.08 Ю  16 км    5/5 240 м  +12.8  +10.0  83  +11  +11    1022.9  1006.6         
11:45 17.08 Ю  16 км    10/10 240 м  +12.8  +10.0  83  +11  +11      1006.9         
11:53 17.08 Ю  16 км    10/10 240 м  +12.8  +10.0  83  +11  +11    1023.2  1006.9         
12:53 17.08 Ю  14 км    10/10 270 м  +12.8  +10.0  83  +11  +11    1024.0  1007.6         
13:53 17.08 Ю  14 км    10/10 270 м  +13.3  +10.0  80  +12  +12    1024.4  1008.2         
14:53 17.08 Ю  16 км    10/10 330 м  +13.9  +10.0  77  +13  +13    1024.8  1008.6         
15:53 17.08 нст  16 км    10/10 360 м  +15.0  +10.0  72  +14  +14    1025.0  1008.6         
16:31 17.08 ЮЗ  16 км    10/10 480 м  +16.1  +10.0  67  +16  +16      1008.9         
16:53 17.08 З  16 км    10/10 540 м  +17.0  +11.0  68  +17  +17    1025.3  1008.9  +12.2       
17:53 17.08 З  16 км    8/8 570 м  +16.7  +10.6  67  +16  +18    1025.4  1009.2         
18:33 17.08 ЮЗ  16 км    2/2 630 м  +17.8  +10.6  63  +18  +26      1008.9         
18:53 17.08 нст  16 км    2/2 630 м  +18.3  +10.6  61  +19  +27    1025.1  1008.9         
19:53 17.08 нст  16 км    ясно  +19.4  +10.6  57  +21  +32  комфорт  1025.0  1008.6         
20:53 17.08 ЮЗ  3
{7} 
16 км    ясно  +20.6  +11.1  54  +23  +33  комфорт  1024.6  1008.2         
21:53 17.08 ЮЗ  16 км    ясно  +21.7  +11.1  51  +24  +32  комфорт  1024.1  1007.9         
22:53 17.08 ЮЗ  16 км    ясно  +22.2  +11.7  51  +24  +31  комфорт  1023.7  1007.6    +22.8     
23:53 17.08 З  16 км    ясно  +22.8  +11.7  50  +25  +30  комфорт  1023.5  1007.2         
00:53 18.08 ЮЗ  16 км    ясно  +22.8  +11.7  50  +25  +28  комфорт  1023.1  1006.9         
01:53 18.08 Ю  16 км    ясно  +21.1  +11.7  55  +23  +24  комфорт  1023.2  1006.9         
02:53 18.08 Ю  16 км    ясно  +20.6  +11.7  57  +23  +23  комфорт  1023.7  1007.6         
03:53 18.08 ЮЗ  16 км    ясно  +20.0  +11.7  59  +22  +22  комфорт  1023.9  1007.6         
04:53 18.08 Ю  16 км    ясно  +17.8  +11.7  67  +18  +18    1023.9  1007.6    +23.3     
05:53 18.08 ЮЗ  16 км    ясно  +16.7  +11.7  72  +17  +17    1024.0  1007.6         
06:53 18.08 штиль  16 км    ясно  +15.6  +11.1  75  +15  +15    1024.1  1007.9         
07:53 18.08 штиль  16 км    ясно  +15.0  +11.1  77  +15  +15    1024.1  1007.9         
08:53 18.08 штиль  16 км    ясно  +14.4  +11.1  81  +14  +14    1023.9  1007.6         
09:53 18.08 ЮЗ  14 км    ясно  +13.3  +10.6  84  +12  +12    1024.1  1007.9         
10:53 18.08 Ю  16 км    ясно  +13.3  +11.1  87  +13  +13    1024.2  1007.9    +18.3     
11:53 18.08 Ю  14 км    2/0 7500 м
[верхняя] 
+12.8  +11.1  89  +12  +12    1024.2  1007.9         
12:53 18.08 штиль  13 км    5/0 6600 м
[верхняя] 
+12.8  +11.1  89  +12  +12    1024.4  1008.2         

 

Местоположение метеостанции Seattle-Tacoma International Airport: широта 47.4447 долгота -122.3136 высота над уровнем моря 130 м.

В архиве по умолчанию представлена погода в Сиэтле за последние 1-2 суток. Обновление информации о фактической погоде в базе происходит ежечасно! Архивные данные за месяц целиком и за предыдущие месяцы Вы можете получить, выбрав интересующий диапазон дат из раскрывающегося списка и нажав кнопку "Ввод!".

Внимание! Архив погоды МЕТАР в базе сайта в настоящее время начинается c 1 января 2013 г. Нет смысла пытаться выбрать более раннюю дату.

Внимание! Время в таблицах - всемирное. Для получения местного времени необходимо прибавить поправку, которая в Сиэтле равна -8 ч.

Ветер - указаны скорость ветра в м/с и направление, откуда дует ветер: С - северный, СВ - северо-восточный, В - восточный, ЮВ - юго-восточный, Ю - южный, ЮЗ - юго-западный, З - западный, СЗ - северо-западный.
Видимость - горизонтальная дальность видимости в метрах или километрах. При видимости от 1 до 10 км при отсутствии осадков обычно наблюдается дымка, при ухудшении видимости до 1 км и менее - туман. В сухую погоду видимость может ухудшаться дымом, пылью или мглою.
Атмосферные явления - указаны явления, наблюдавшиеся в указанный момент времени.
Облачность - указаны через наклонную черту верхняя и нижняя облачность в баллах и высота нижней границы облаков в метрах. Внимание: облачность, как и прочие метеорологические величины в США измеряются автоматическими метеостанциями. Указанные значения в баллах носят условный характер и показывают процент времени, в течение которого, в среднем, лазерный луч высотомера отражался от облаков обратно.
T - Температура воздуха - температура, измеренная на высоте 2 м над землей.
Td - Температура точки росы - температура, при понижении до которой содержащийся в воздухе водяной пар достигнет насыщения.
f - Относительная влажность воздуха - влажноcть воздуха, измеренная на высоте 2 м над землей.
Te - Эффективная температура - температура, которую ощущает одетый по сезону человек в тени. Характеристика душности погоды. При расчете учитывается влияние влажности воздуха и скорости ветра на теплоощущения человека.
Tes - Эффективная температура на солнце - температура, которую ощущает человек, с поправкой на солнечный нагрев. Характеристика знойности погоды. Зависит от высоты солнца над горизонтом, облачности и скорости ветра. Ночью, в пасмурную погоду, а также при ветре 12 м/с и более поправка равна нулю.
P - Атмосферное давление - приведенное к уровню моря атмосферное давление.
Po - Атмосферное давление - измеренное на уровне метеостанции атмосферное давление.
Tmin - Минимальная температура - минимум температуры воздуха на высоте 2 м над землей.
Tmax - Максимальная температура - максимум температуры воздуха на высоте 2 м над землей.
R - Количество осадков - Количество выпавших осадков за 3 или 6 часов, мм.
SD - Снежный покров - Высота снежного покрова, см.